Kuchera_Ratio
0.0 0.0 0.0 0.0 0.0 0.0 0.0 0.0 0.0 0.0 0.0 0.0 0.0 0.0 0.0 0.0 0.0 0.0 0.0 1.1 2.6 4.2
0.0 0.0 0.0 0.0 0.0 0.0 0.0 0.0 0.0 0.0 0.0 0.0 0.0 0.0 0.0 0.0 0.0 0.2 0.9 1.9 3.5 5.0
0.0 0.0 0.0 0.0 0.0 0.0 0.0 0.0 0.0 0.0 0.0 0.0 0.0 0.0 0.0 0.2 0.0 1.0 1.3 3.3 4.8 5.8
0.0 0.0 0.0 0.0 0.0 0.0 0.0 0.0 0.0 0.0 0.0 0.0 0.6 0.0 2.1 1.4 1.1 2.6 4.8 6.1 7.3 7.9
0.0 0.0 0.0 0.0 0.0 0.0 0.0 0.0 0.0 0.0 0.5 0.9 0.0 0.2 2.5 3.1 4.2 6.3 7.3 7.9 9.0 9.2
0.0 0.0 0.0 0.0 0.0 0.0 0.0 0.0 0.0 0.0 0.0 0.0 1.4 2.4 1.8 4.2 6.6 7.5 8.6 9.4 10.2 10.0
0.0 0.0 0.0 0.0 0.0 0.0 1.1 1.6 3.2 0.0 1.2 1.4 1.4 0.4 4.0 6.6 8.4 9.6 9.2 9.2 10.0 10.6
0.0 0.0 0.0 0.0 1.6 2.7 3.6 2.0 0.4 0.6 2.6 5.2 4.8 4.4 7.6 8.0 9.4 10.8 11.0 10.6 9.8 9.6
0.0 0.0 0.0 1.8 4.4 4.4 3.8 2.0 3.2 5.4 7.6 7.9 4.4 3.2 3.4 7.2 11.4 11.4 12.0 12.7 12.1 12.0
0.0 0.0 1.7 3.3 5.6 4.6 6.2 8.5 8.5 8.6 9.1 10.1 9.8 4.6 4.6 6.4 11.2 12.9 13.3 13.4 13.4 12.9
0.3 2.5 3.4 3.9 2.0 6.2 6.2 4.4 9.7 10.3 10.6 11.4 9.4 6.4 6.4 7.8 13.1 14.0 13.6 13.3 13.5 13.5
2.8 4.1 4.4 5.0 5.2 6.1 7.6 9.0 9.7 10.2 11.5 12.6 12.8 8.0 8.0 10.2 14.1 14.2 14.2 13.0 12.9 12.6
3.7 4.8 6.3 6.9 7.0 6.6 7.8 9.1 9.8 9.8 12.2 10.2 13.6 10.8 9.0 10.4 15.6 16.0 15.2 14.0 13.1 12.6
4.5 6.1 7.4 7.4 8.2 8.4 9.5 10.7 11.4 12.2 13.2 12.9 12.7 13.6 10.2 9.4 15.4 15.5 14.6 14.9 14.7 13.7